User: anonymous   Login
Location: Theydon Bois
(51.6750°N, 0.1050°E)
Time: 12:36:36
(UTC+01:00)
Language:

GP-B - Orbit

View from above orbital plane
View from above orbital plane
View from above satellite
View from above satellite

Ground track
Ground track

The orbit data is extracted from the following two-line orbital elements,

1 28230U 04014A   18113.12650334  .00000122  00000-0  14465-4 0  9991
2 28230  89.8310 115.9001 0003212  99.5607 260.5979 14.78612478754896
Epoch (UTC): 23 April 2018 03:02:09
Eccentricity: 0.0003212
inclination: 89.8310°
perigee height: 631 km
apogee height: 636 km
right ascension of ascending node: 115.9001°
argument of perigee: 99.5607°
revolutions per day: 14.78612478
mean anomaly at epoch: 260.5979°
orbit number at epoch: 75489

The dashed part of the orbit path shows where the satellite is in the earth's shadow,  

DLR